GLO8001 SBMG-SBCT

Flight info

Callsign GLO8001
Flight time 0h 47m
Altitude 25000
Route UMLEX UZ176 PAPIP
Aircraft B738/M-V/N

Departure

Time 2026-05-08 21:57
Airport Regional de Maringá - Sílvio Name Júnior Airport (SBMG)

Arrival

Time 2026-05-08 22:44
Airport Curitiba-Afonso Pena International Airport (SBCT)
Time Latitude Longitude Altitude Speed Heading
2026-05-08 21:46 -23.47904 -52.01213 1805 ft 0 kts 169°
2026-05-08 21:48 -23.47901 -52.01214 1805 ft 3 kts 169°
2026-05-08 21:49 -23.47884 -52.01218 1800 ft 2 kts 169°
2026-05-08 21:49 -23.47867 -52.01215 1803 ft 2 kts 231°
2026-05-08 21:49 -23.47861 -52.01203 1801 ft 0 kts 275°
2026-05-08 21:51 -23.47861 -52.01204 1801 ft 0 kts 275°
2026-05-08 21:51 -23.47860 -52.01218 1803 ft 4 kts 275°
2026-05-08 21:52 -23.47866 -52.01268 1803 ft 9 kts 261°
2026-05-08 21:52 -23.47846 -52.01327 1800 ft 9 kts 303°
2026-05-08 21:52 -23.47814 -52.01384 1799 ft 10 kts 301°
2026-05-08 21:52 -23.47774 -52.01453 1799 ft 12 kts 302°
2026-05-08 21:53 -23.47758 -52.01550 1798 ft 15 kts 261°
2026-05-08 21:53 -23.47780 -52.01669 1793 ft 17 kts 259°
2026-05-08 21:53 -23.47805 -52.01804 1790 ft 19 kts 255°
2026-05-08 21:53 -23.47838 -52.01952 1788 ft 21 kts 258°
2026-05-08 21:54 -23.47870 -52.02116 1784 ft 23 kts 257°
2026-05-08 21:54 -23.47903 -52.02282 1779 ft 22 kts 258°
2026-05-08 21:54 -23.47935 -52.02442 1775 ft 22 kts 257°
2026-05-08 21:54 -23.47959 -52.02590 1771 ft 19 kts 268°
2026-05-08 21:55 -23.47931 -52.02727 1771 ft 18 kts 288°
2026-05-08 21:55 -23.47879 -52.02816 1766 ft 13 kts 342°
2026-05-08 21:55 -23.47832 -52.02776 1765 ft 0 kts 75°
2026-05-08 21:56 -23.47831 -52.02774 1766 ft 5 kts 76°
2026-05-08 21:56 -23.47769 -52.02454 1775 ft 81 kts 78°
2026-05-08 21:56 -23.47604 -52.01615 1797 ft 143 kts 78°
2026-05-08 21:56 -23.47384 -52.00456 2189 ft 168 kts 81°
2026-05-08 21:57 -23.47165 -51.99074 2514 ft 202 kts 77°
2026-05-08 21:57 -23.47245 -51.97475 2850 ft 232 kts 111°
2026-05-08 21:57 -23.48334 -51.96132 3377 ft 246 kts 146°
2026-05-08 21:57 -23.49760 -51.95086 3874 ft 248 kts 144°
2026-05-08 21:58 -23.51166 -51.93951 4359 ft 256 kts 141°
2026-05-08 21:58 -23.52579 -51.92706 4772 ft 270 kts 139°
2026-05-08 21:58 -23.54075 -51.91299 4947 ft 297 kts 137°
2026-05-08 21:58 -23.55643 -51.89740 5431 ft 310 kts 136°
2026-05-08 21:59 -23.57233 -51.88095 6132 ft 316 kts 135°
2026-05-08 21:59 -23.58820 -51.86413 6859 ft 319 kts 135°
2026-05-08 21:59 -23.60390 -51.84723 7575 ft 323 kts 135°
2026-05-08 21:59 -23.61993 -51.82983 8290 ft 326 kts 135°
2026-05-08 22:00 -23.63608 -51.81219 8990 ft 331 kts 135°
2026-05-08 22:00 -23.65239 -51.79431 9697 ft 335 kts 135°
2026-05-08 22:00 -23.66903 -51.77605 10280 ft 344 kts 135°
2026-05-08 22:00 -23.68644 -51.75695 10461 ft 367 kts 135°
2026-05-08 22:01 -23.70496 -51.73661 10663 ft 387 kts 135°
2026-05-08 22:01 -23.72419 -51.71547 11126 ft 396 kts 135°
2026-05-08 22:01 -23.74373 -51.69399 11733 ft 401 kts 135°
2026-05-08 22:01 -23.76319 -51.67205 12383 ft 404 kts 134°
2026-05-08 22:02 -23.78246 -51.64957 13069 ft 406 kts 133°
2026-05-08 22:02 -23.80174 -51.62683 13692 ft 409 kts 133°
2026-05-08 22:02 -23.82113 -51.60391 14229 ft 413 kts 133°
2026-05-08 22:02 -23.84069 -51.58084 14786 ft 415 kts 133°
2026-05-08 22:03 -23.86039 -51.55766 15341 ft 418 kts 134°
2026-05-08 22:03 -23.88003 -51.53459 15897 ft 420 kts 134°
2026-05-08 22:03 -23.90001 -51.51111 16442 ft 424 kts 134°
2026-05-08 22:03 -23.92022 -51.48739 16990 ft 427 kts 134°
2026-05-08 22:04 -23.94063 -51.46344 17464 ft 432 kts 134°
2026-05-08 22:04 -23.96123 -51.43923 17968 ft 436 kts 134°
2026-05-08 22:04 -23.98195 -51.41488 18470 ft 438 kts 134°
2026-05-08 22:04 -24.00275 -51.39041 18942 ft 440 kts 134°
2026-05-08 22:05 -24.02371 -51.36574 19397 ft 442 kts 134°
2026-05-08 22:05 -24.04469 -51.34103 19850 ft 445 kts 134°
2026-05-08 22:05 -24.06585 -51.31610 20295 ft 447 kts 134°
2026-05-08 22:05 -24.08680 -51.29142 20726 ft 450 kts 135°
2026-05-08 22:06 -24.10813 -51.26626 21195 ft 451 kts 135°
2026-05-08 22:06 -24.12952 -51.24101 21728 ft 451 kts 135°
2026-05-08 22:06 -24.15087 -51.21579 22348 ft 449 kts 135°
2026-05-08 22:06 -24.17203 -51.19077 22933 ft 447 kts 135°
2026-05-08 22:07 -24.19317 -51.16577 23483 ft 447 kts 135°
2026-05-08 22:07 -24.21428 -51.14080 23924 ft 447 kts 135°
2026-05-08 22:07 -24.23533 -51.11586 24402 ft 445 kts 135°
2026-05-08 22:07 -24.25633 -51.09099 24874 ft 444 kts 135°
2026-05-08 22:08 -24.27738 -51.06606 24903 ft 444 kts 135°
2026-05-08 22:08 -24.29801 -51.04161 24940 ft 442 kts 135°
2026-05-08 22:08 -24.31891 -51.01686 24943 ft 443 kts 135°
2026-05-08 22:08 -24.33986 -50.99205 24955 ft 444 kts 135°
2026-05-08 22:09 -24.36084 -50.96719 24946 ft 444 kts 135°
2026-05-08 22:09 -24.38180 -50.94233 24951 ft 445 kts 135°
2026-05-08 22:09 -24.40280 -50.91740 24947 ft 445 kts 135°
2026-05-08 22:09 -24.42382 -50.89243 24933 ft 445 kts 135°
2026-05-08 22:10 -24.44480 -50.86750 24934 ft 445 kts 135°
2026-05-08 22:10 -24.46579 -50.84254 24959 ft 444 kts 135°
2026-05-08 22:10 -24.48673 -50.81763 24954 ft 444 kts 135°
2026-05-08 22:10 -24.50766 -50.79272 24944 ft 444 kts 135°
2026-05-08 22:11 -24.52863 -50.76773 24944 ft 444 kts 135°
2026-05-08 22:11 -24.54957 -50.74279 24939 ft 444 kts 135°
2026-05-08 22:11 -24.57051 -50.71783 24938 ft 443 kts 135°
2026-05-08 22:11 -24.59139 -50.69292 24947 ft 443 kts 135°
2026-05-08 22:12 -24.61171 -50.66738 24945 ft 444 kts 130°
2026-05-08 22:12 -24.63045 -50.64093 24933 ft 444 kts 128°
2026-05-08 22:12 -24.64904 -50.61329 24948 ft 444 kts 127°
2026-05-08 22:12 -24.66704 -50.58617 24948 ft 444 kts 127°
2026-05-08 22:13 -24.68529 -50.55878 24945 ft 444 kts 127°
2026-05-08 22:13 -24.70368 -50.53145 24946 ft 444 kts 128°
2026-05-08 22:13 -24.72218 -50.50419 24950 ft 444 kts 128°
2026-05-08 22:13 -24.74072 -50.47703 24938 ft 444 kts 128°
2026-05-08 22:14 -24.75930 -50.44990 24945 ft 444 kts 128°
2026-05-08 22:14 -24.77793 -50.42273 24948 ft 444 kts 128°
2026-05-08 22:14 -24.79650 -50.39564 24939 ft 444 kts 128°
2026-05-08 22:14 -24.81512 -50.36846 24961 ft 443 kts 128°
2026-05-08 22:15 -24.83368 -50.34135 24951 ft 444 kts 128°
2026-05-08 22:15 -24.85223 -50.31423 24953 ft 444 kts 128°
2026-05-08 22:15 -24.87085 -50.28698 24954 ft 444 kts 128°
2026-05-08 22:15 -24.88943 -50.25977 24953 ft 444 kts 128°
2026-05-08 22:16 -24.90179 -50.24166 24951 ft 445 kts 128°
2026-05-08 22:16 -24.92032 -50.21451 24950 ft 441 kts 128°
2026-05-08 22:16 -24.93855 -50.18775 24791 ft 433 kts 128°
2026-05-08 22:16 -24.95658 -50.16129 24515 ft 430 kts 128°
2026-05-08 22:17 -24.98031 -50.12645 24070 ft 428 kts 128°
2026-05-08 22:17 -24.99814 -50.10025 23719 ft 426 kts 128°
2026-05-08 22:17 -25.01017 -50.08258 23436 ft 426 kts 128°
2026-05-08 22:17 -25.02775 -50.05673 23021 ft 425 kts 128°
2026-05-08 22:18 -25.04542 -50.03073 22613 ft 423 kts 128°
2026-05-08 22:18 -25.06307 -50.00476 22234 ft 422 kts 128°
2026-05-08 22:18 -25.08062 -49.97890 21844 ft 420 kts 128°
2026-05-08 22:18 -25.09805 -49.95321 21449 ft 417 kts 128°
2026-05-08 22:19 -25.11540 -49.92762 21093 ft 415 kts 128°
2026-05-08 22:19 -25.13272 -49.90206 20725 ft 414 kts 128°
2026-05-08 22:19 -25.14990 -49.87670 20349 ft 412 kts 127°
2026-05-08 22:19 -25.16706 -49.85136 19981 ft 411 kts 127°
2026-05-08 22:20 -25.18396 -49.82639 19595 ft 411 kts 127°
2026-05-08 22:20 -25.20106 -49.80112 19206 ft 410 kts 127°
2026-05-08 22:20 -25.21809 -49.77593 18823 ft 410 kts 127°
2026-05-08 22:20 -25.23512 -49.75070 18467 ft 409 kts 127°
2026-05-08 22:21 -25.25211 -49.72551 18047 ft 408 kts 127°
2026-05-08 22:21 -25.26905 -49.70037 17646 ft 407 kts 127°
2026-05-08 22:21 -25.28591 -49.67536 17262 ft 406 kts 127°
2026-05-08 22:21 -25.30274 -49.65036 16893 ft 404 kts 127°
2026-05-08 22:22 -25.31949 -49.62547 16503 ft 403 kts 127°
2026-05-08 22:22 -25.33618 -49.60068 16131 ft 402 kts 126°
2026-05-08 22:22 -25.35286 -49.57587 15738 ft 401 kts 126°
2026-05-08 22:22 -25.36947 -49.55115 15359 ft 400 kts 126°
2026-05-08 22:23 -25.38602 -49.52650 15073 ft 396 kts 126°
2026-05-08 22:23 -25.40233 -49.50220 14838 ft 391 kts 126°
2026-05-08 22:23 -25.41825 -49.47847 14602 ft 386 kts 126°
2026-05-08 22:23 -25.43417 -49.45473 14368 ft 381 kts 126°
2026-05-08 22:24 -25.44989 -49.43129 14143 ft 377 kts 126°
2026-05-08 22:24 -25.46540 -49.40812 13909 ft 372 kts 127°
2026-05-08 22:24 -25.48095 -49.38539 13668 ft 367 kts 130°
2026-05-08 22:24 -25.49820 -49.36475 13413 ft 363 kts 136°
2026-05-08 22:25 -25.51617 -49.34533 13144 ft 359 kts 137°
2026-05-08 22:25 -25.53384 -49.32647 12904 ft 355 kts 137°
2026-05-08 22:25 -25.55142 -49.30745 12657 ft 352 kts 137°
2026-05-08 22:25 -25.56875 -49.28840 12388 ft 349 kts 136°
2026-05-08 22:26 -25.58579 -49.26945 12137 ft 346 kts 136°
2026-05-08 22:26 -25.60269 -49.25056 11896 ft 343 kts 136°
2026-05-08 22:26 -25.61941 -49.23184 11656 ft 340 kts 136°
2026-05-08 22:26 -25.63603 -49.21322 11420 ft 338 kts 136°
2026-05-08 22:27 -25.65243 -49.19472 11175 ft 335 kts 135°
2026-05-08 22:27 -25.66851 -49.17611 10933 ft 333 kts 135°
2026-05-08 22:27 -25.68443 -49.15757 10686 ft 331 kts 135°
2026-05-08 22:27 -25.70027 -49.13907 10446 ft 329 kts 135°
2026-05-08 22:28 -25.71575 -49.12099 10212 ft 327 kts 134°
2026-05-08 22:28 -25.73133 -49.10279 9969 ft 325 kts 135°
2026-05-08 22:28 -25.74680 -49.08468 9719 ft 323 kts 134°
2026-05-08 22:28 -25.76233 -49.06679 9421 ft 320 kts 134°
2026-05-08 22:29 -25.77788 -49.04922 9175 ft 318 kts 135°
2026-05-08 22:29 -25.79341 -49.03175 8907 ft 316 kts 135°
2026-05-08 22:29 -25.80881 -49.01438 8657 ft 314 kts 135°
2026-05-08 22:29 -25.82411 -48.99712 8390 ft 313 kts 135°
2026-05-08 22:30 -25.83923 -48.97982 8147 ft 311 kts 135°
2026-05-08 22:30 -25.85437 -48.96263 7901 ft 310 kts 135°
2026-05-08 22:30 -25.86938 -48.94550 7638 ft 309 kts 134°
2026-05-08 22:30 -25.88435 -48.92847 7402 ft 307 kts 134°
2026-05-08 22:31 -25.89621 -48.90895 7126 ft 302 kts 105°
2026-05-08 22:31 -25.89933 -48.88678 6933 ft 281 kts 75°
2026-05-08 22:31 -25.89394 -48.86771 6881 ft 248 kts 49°
2026-05-08 22:31 -25.88493 -48.85198 6867 ft 238 kts 44°
2026-05-08 22:32 -25.87590 -48.83657 6932 ft 241 kts 44°
2026-05-08 22:32 -25.86497 -48.82304 6820 ft 221 kts 18°
2026-05-08 22:32 -25.85170 -48.82280 6813 ft 193 kts 332°
2026-05-08 22:32 -25.84065 -48.83092 6878 ft 194 kts 312°
2026-05-08 22:33 -25.83272 -48.84287 6898 ft 192 kts 306°
2026-05-08 22:33 -25.82543 -48.85529 6839 ft 192 kts 305°
2026-05-08 22:33 -25.81827 -48.86772 6689 ft 189 kts 306°
2026-05-08 22:33 -25.80935 -48.87773 6562 ft 183 kts 319°
2026-05-08 22:34 -25.79947 -48.88688 6389 ft 182 kts 319°
2026-05-08 22:34 -25.79008 -48.89575 6276 ft 177 kts 319°
2026-05-08 22:34 -25.78076 -48.90455 6198 ft 175 kts 319°
2026-05-08 22:34 -25.77150 -48.91334 6188 ft 174 kts 319°
2026-05-08 22:35 -25.76220 -48.92184 6131 ft 171 kts 318°
2026-05-08 22:35 -25.75326 -48.93042 6000 ft 168 kts 319°
2026-05-08 22:35 -25.74471 -48.93894 5923 ft 164 kts 317°
2026-05-08 22:35 -25.73630 -48.94769 5789 ft 166 kts 316°
2026-05-08 22:36 -25.72891 -48.95772 5672 ft 174 kts 317°
2026-05-08 22:36 -25.71936 -48.96568 5583 ft 173 kts 320°
2026-05-08 22:36 -25.71019 -48.97445 5630 ft 173 kts 319°
2026-05-08 22:36 -25.70148 -48.98377 5808 ft 176 kts 311°
2026-05-08 22:37 -25.69491 -48.99508 6126 ft 174 kts 301°
2026-05-08 22:37 -25.69175 -49.00849 6377 ft 200 kts 283°
2026-05-08 22:37 -25.69115 -49.02398 6467 ft 196 kts 284°
2026-05-08 22:37 -25.68975 -49.03853 6486 ft 186 kts 285°
2026-05-08 22:38 -25.68854 -49.05236 6411 ft 172 kts 286°
2026-05-08 22:38 -25.68454 -49.06348 6381 ft 144 kts 314°
2026-05-08 22:38 -25.67666 -49.06920 6205 ft 133 kts 335°
2026-05-08 22:38 -25.66751 -49.07141 6057 ft 137 kts 347°
2026-05-08 22:39 -25.65712 -49.07191 6027 ft 161 kts 348°
2026-05-08 22:39 -25.64601 -49.07235 6043 ft 153 kts 349°
2026-05-08 22:39 -25.63567 -49.07281 5793 ft 143 kts 345°
2026-05-08 22:39 -25.62660 -49.07503 5528 ft 128 kts 333°
2026-05-08 22:40 -25.61923 -49.07892 5530 ft 114 kts 324°
2026-05-08 22:40 -25.61256 -49.08369 5516 ft 114 kts 322°
2026-05-08 22:40 -25.60648 -49.08913 5303 ft 111 kts 315°
2026-05-08 22:40 -25.60105 -49.09493 5031 ft 107 kts 315°
2026-05-08 22:41 -25.59580 -49.10051 4791 ft 102 kts 315°
2026-05-08 22:41 -25.59067 -49.10609 4580 ft 105 kts 315°
2026-05-08 22:41 -25.58582 -49.11210 4507 ft 105 kts 311°
2026-05-08 22:41 -25.58062 -49.11845 4472 ft 121 kts 314°
2026-05-08 22:42 -25.57446 -49.12521 4241 ft 127 kts 316°
2026-05-08 22:42 -25.56805 -49.13187 3946 ft 122 kts 315°
2026-05-08 22:42 -25.56208 -49.13868 3808 ft 128 kts 313°
2026-05-08 22:42 -25.55591 -49.14584 3604 ft 132 kts 316°
2026-05-08 22:43 -25.54926 -49.15267 3446 ft 131 kts 316°
2026-05-08 22:43 -25.54265 -49.16028 3204 ft 147 kts 316°
2026-05-08 22:43 -25.53540 -49.16801 3007 ft 139 kts 312°
2026-05-08 22:43 -25.52942 -49.17483 2988 ft 104 kts 315°
2026-05-08 22:44 -25.52546 -49.17919 2989 ft 44 kts 316°
2026-05-08 22:44 -25.52433 -49.18029 2990 ft 19 kts 330°
2026-05-08 22:44 -25.52416 -49.18048 2990 ft 2 kts 261°
2026-05-08 22:44 -25.52434 -49.18038 2990 ft 8 kts 145°
2026-05-08 22:45 -25.52498 -49.17968 2990 ft 18 kts 134°
2026-05-08 22:45 -25.52609 -49.17840 2988 ft 27 kts 135°
2026-05-08 22:45 -25.52743 -49.17692 2987 ft 27 kts 135°
2026-05-08 22:45 -25.52869 -49.17550 2987 ft 25 kts 134°
2026-05-08 22:46 -25.52988 -49.17420 2988 ft 23 kts 135°
2026-05-08 22:46 -25.53092 -49.17302 2987 ft 17 kts 136°
2026-05-08 22:46 -25.53192 -49.17332 2986 ft 17 kts 216°
2026-05-08 22:46 -25.53289 -49.17309 2985 ft 16 kts 136°
2026-05-08 22:47 -25.53372 -49.17257 2985 ft 14 kts 205°
2026-05-08 22:47 -25.53391 -49.17346 2985 ft 11 kts 240°
2026-05-08 22:47 -25.53428 -49.17371 2985 ft 3 kts 199°
2026-05-08 22:47 -25.53429 -49.17371 2985 ft 0 kts 199°